DW9584 Weather Reports


time (UTC)temp
F
wind
direction
speed
knots
gust
knots
rain 1hr
in
rain 24hr
in
rain mn
in
humidity
%
barometer
mb
20260510173007 77 192 0.0 3.5 0.00 0.00 0.00 51 1013.1
20260510171506 76 214 1.7 4.3 0.00 0.00 0.00 52 1013.0
20260510170005 77 191 0.9 4.3 0.00 0.00 0.00 49 1013.0
20260510164508 76 218 0.0 1.7 0.00 0.00 0.00 53 1013.0
20260510163011 75 217 0.0 3.5 0.00 0.00 0.00 52 1013.2
20260510161507 75 200 0.9 2.6 0.00 0.00 0.00 58 1013.2
20260510160007 74 209 0.0 2.6 0.00 0.00 0.00 56 1013.1
20260510154510 74 243 0.0 3.5 0.00 0.00 0.00 55 1013.1
20260510153021 72 203 0.0 2.6 0.00 0.00 0.00 60 1013.2
20260510151510 71 283 0.0 4.3 0.00 0.00 0.00 60 1013.2
20260510150010 70 240 0.0 3.5 0.00 0.00 0.00 65 1013.1
20260510144512 68 212 0.9 4.3 0.00 0.00 0.00 67 1013.4
20260510143013 67 204 0.9 3.5 0.00 0.00 0.00 70 1013.5
20260510141515 64 299 0.0 1.7 0.00 0.00 0.00 77 1013.4
20260510140014 63 118 0.0 2.6 0.00 0.00 0.00 80 1013.5
20260510134516 62 192 0.9 1.7 0.00 0.00 0.00 81 1013.3
20260510133015 60 123 0.0 1.7 0.00 0.00 0.00 83 1013.3
20260510131515 59 130 0.0 2.6 0.00 0.00 0.00 85 1013.4
20260510130027 58 231 0.0 1.7 0.00 0.00 0.00 88 1013.4
20260510124517 56 352 0.0 1.7 0.00 0.00 0.00 90 1013.3
20260510123017 56 352 0.0 1.7 0.00 0.00 0.00 91 1013.3
20260510121515 55 352 0.0 1.7 0.00 0.00 0.00 94 1013.1
20260510120019 54 352 0.0 1.7 0.00 0.00 0.00 95 1013.0
20260510114517 53 352 0.0 1.7 0.00 0.00 0.00 95 1012.9
20260510113028 52 352 0.0 0.0 0.00 0.00 0.00 95 1012.7
20260510111530 52 352 0.0 0.0 0.00 0.00 0.00 95 1012.6
20260510110018 52 352 0.0 0.0 0.00 0.00 0.00 95 1012.3
20260510104527 51 352 0.0 1.7 0.00 0.00 0.00 95 1012.1
20260510103024 51 352 0.0 0.9 0.00 0.00 0.00 95 1011.9
20260510101522 50 352 0.0 1.7 0.00 0.00 0.00 95 1012.0
20260510100021 50 352 0.0 0.0 0.00 0.00 0.00 95 1011.9
20260510094524 50 352 0.0 1.7 0.00 0.00 0.00 95 1011.7
20260510093023 50 300 0.0 1.7 0.00 0.00 0.00 95 1011.8
20260510091527 49 249 0.0 2.6 0.00 0.00 0.00 95 1011.5
20260510090008 49 200 0.0 1.7 0.00 0.00 0.00 95 1011.6
20260510084508 48 229 0.0 1.7 0.00 0.00 0.00 95 1011.7
20260510083004 48 1 0.0 0.0 0.00 0.00 0.00 95 1011.2
20260510081533 48 1 0.0 0.0 0.00 0.00 0.00 95 1011.1
20260510080024 48 1 0.0 0.0 0.00 0.00 0.00 95 1011.2
20260510074519 48 1 0.0 0.0 0.00 0.00 0.00 95 1011.1
20260510073025 48 1 0.0 0.0 0.00 0.00 0.00 95 1011.0
20260510071516 48 1 0.0 0.0 0.00 0.00 0.00 95 1010.8
20260510070021 48 1 0.0 0.0 0.00 0.00 0.00 95 1010.4
20260510064536 48 1 0.0 0.0 0.00 0.00 0.00 94 1010.6
20260510063038 48 1 0.0 0.0 0.00 0.00 0.00 94 1010.7
20260510061507 48 1 0.0 0.0 0.00 0.00 0.00 94 1010.8
20260510060006 49 1 0.0 0.0 0.00 0.00 0.00 94 1010.7
20260510054524 49 1 0.0 0.0 0.00 0.00 0.00 94 1011.0
20260510053019 49 1 0.0 0.0 0.00 0.00 0.00 94 1011.0
20260510051518 49 1 0.0 0.0 0.00 0.00 0.00 94 1011.2
20260510050014 49 1 0.0 0.0 0.00 0.00 0.00 94 1011.3
20260510044511 50 1 0.0 0.0 0.00 0.00 0.00 94 1011.3
20260510043012 50 1 0.0 0.0 0.00 0.00 0.00 94 1011.3
20260510041506 50 1 0.0 0.0 0.00 0.00 0.00 94 1011.4
20260510040027 50 1 0.0 0.0 0.00 0.00 0.00 94 1011.5
20260510034525 51 1 0.0 0.0 0.00 0.00 0.00 93 1011.4
20260510033024 51 1 0.0 0.0 0.00 0.00 0.00 93 1011.1
20260510031518 51 1 0.0 0.0 0.00 0.00 0.00 93 1011.0
20260510030015 51 1 0.0 0.0 0.00 0.00 0.00 93 1010.9
20260510024516 52 1 0.0 0.0 0.00 0.00 0.00 92 1010.8
20260510023013 52 1 0.0 0.0 0.00 0.00 0.00 92 1011.0
20260510021527 52 1 0.0 0.0 0.00 0.00 0.00 92 1010.9
20260510020028 53 1 0.0 0.0 0.00 0.00 0.00 91 1010.9
20260510014529 53 1 0.0 0.0 0.00 0.00 0.00 91 1010.7
20260510013025 53 1 0.0 0.0 0.00 0.00 0.00 90 1010.5
20260510011525 54 1 0.0 0.0 0.00 0.00 0.00 90 1010.5
20260510010021 54 1 0.0 0.0 0.00 0.00 0.00 89 1010.5
20260510004515 55 1 0.0 0.0 0.00 0.00 0.00 88 1010.3
20260510003043 55 1 0.0 0.0 0.00 0.00 0.00 87 1010.3
20260510001528 56 1 0.0 0.0 0.00 0.00 0.00 85 1010.3
20260510000030 56 1 0.0 0.0 0.00 0.00 0.00 84 1010.3
20260509234536 57 1 0.0 0.0 0.00 0.00 0.00 82 1010.3
20260509233035 58 1 0.0 0.0 0.00 0.00 0.00 80 1010.2
20260509231528 59 1 0.0 0.0 0.00 0.00 0.00 79 1010.1
20260509230021 59 1 0.0 0.0 0.00 0.00 0.00 77 1009.9
20260509224518 59 1 0.0 0.9 0.00 0.00 0.00 80 1010.1
20260509223032 59 1 0.0 2.6 0.00 0.00 0.00 79 1010.1
20260509221529 59 357 0.0 1.7 0.00 0.00 0.00 80 1010.0
20260509220029 58 357 0.0 0.0 0.00 0.00 0.00 81 1010.2
20260509214528 58 53 0.0 1.7 0.00 0.00 0.00 81 1010.2
20260509213027 58 6 0.0 1.7 0.00 0.00 0.00 82 1010.4
20260509211523 58 359 0.0 0.9 0.00 0.00 0.00 81 1010.3
20260509210026 59 359 0.0 0.0 0.00 0.00 0.00 78 1010.3
20260509204520 60 359 0.9 1.7 0.00 0.00 0.00 76 1010.4
20260509203024 60 297 0.0 4.3 0.00 0.00 0.00 75 1010.2
20260509201518 60 346 0.0 3.5 0.00 0.00 0.00 76 1010.3
20260509200013 59 54 0.9 3.5 0.00 0.00 0.00 77 1010.0
20260509194527 59 259 0.9 4.3 0.00 0.00 0.00 77 1010.4
20260509193007 60 360 0.9 1.7 0.00 0.00 0.00 78 1010.4
20260509191526 59 332 0.9 6.1 0.00 0.00 0.00 78 1010.7
20260509190026 59 344 0.0 4.3 0.00 0.00 0.00 75 1010.9
20260509184532 58 171 0.9 4.3 0.00 0.00 0.00 74 1011.0
20260509183030 59 191 2.6 6.1 0.00 0.00 0.00 72 1011.0
20260509181520 60 311 1.7 7.0 0.00 0.00 0.00 72 1011.1
20260509180019 61 88 0.9 4.3 0.00 0.00 0.00 70 1011.2
20260509174512 62 293 0.0 3.5 0.00 0.00 0.00 68 1011.2